Lemoore (Abandoned) Willett A, CO

11:43 PM MDT on October 20, 2019 (GMT -0600)
Lemoore (Abandoned) Willett A

Weather History for KLMO - September, 2019

Change the Weather History Date:

Tuesday, September 17, 2019

  Actual Average (WUND) Record (WUND)
Temperature  
Mean Temperature 72 °F -  
Max Temperature 91 °F - - (-1)
Min Temperature 53 °F - - (-1)
Cooling Degree Days 7    
Growing Degree Days 22 (Base 50)    
Moisture  
Dew Point 40 °F    
Average Humidity 37    
Maximum Humidity 72    
Minimum Humidity 13    
Precipitation  
Precipitation 0.00 in - - ()
Sea Level Pressure  
Sea Level Pressure 29.93 in    
Wind  
Wind Speed 3 mph (SW)    
Max Wind Speed 15 mph    
Max Gust Speed 20 mph    
Visibility 9 miles    
Events      
Averages and records for this station are not official NWS values.
T = Trace of Precipitation, MM = Missing Value Source: NWS Daily Summary

Daily Weather History Graph

Daily Weather History Graph

Search for Another Location

Airport or City:

Astronomy

Sep. 17, 2019 Rise Set
Actual Time 6:43 AM MDT 7:06 PM MDT
Civil Twilight 6:16 AM MDT 7:33 PM MDT
Nautical Twilight 5:44 AM MDT 8:05 PM MDT
Astronomical Twilight 5:11 AM MDT 8:38 PM MDT
Moon 9:10 PM MDT (9/17) 9:50 AM MDT (9/17)
Length of Visible Light 13h 17m
Length of Day
12h 23m
Waning Gibbous, 89% of the Moon is Illuminated
Sep 17
Waning Gibbous
Sep 21
Last Quarter
Sep 28
New
Oct 5
First Quarter
Oct 13
Full

Hourly Weather History & Observations

Time (MDT) Temp. Dew Point Humidity Pressure Visibility Wind Dir Wind Speed Gust Speed Precip Events Conditions
12:15 AM 59.4 °F 43.2 °F 55% 29.93 in 7.0 mi Calm Calm - N/A   Clear
12:35 AM 59.0 °F 42.4 °F 54% 29.92 in 10.0 mi Calm Calm - N/A   Clear
12:55 AM 58.6 °F 43.0 °F 56% 29.92 in 7.0 mi Calm Calm - N/A   Clear
1:15 AM 57.4 °F 43.0 °F 59% 29.92 in 7.0 mi Calm Calm - N/A   Clear
1:35 AM 56.3 °F 42.6 °F 60% 29.93 in 7.0 mi Calm Calm - N/A   Clear
1:55 AM 57.4 °F 42.6 °F 58% 29.94 in 7.0 mi Calm Calm - N/A   Clear
2:15 AM 56.7 °F 43.3 °F 61% 29.93 in 7.0 mi Calm Calm - N/A   Clear
2:35 AM 56.5 °F 44.6 °F 64% 29.93 in 7.0 mi Calm Calm - N/A   Clear
2:55 AM 55.8 °F 45.1 °F 67% 29.94 in 7.0 mi Calm Calm - N/A   Scattered Clouds
3:15 AM 56.8 °F 45.5 °F 66% 29.93 in 7.0 mi West 5.8 mph - N/A   Scattered Clouds
3:35 AM 57.2 °F 44.4 °F 62% 29.93 in 10.0 mi Calm Calm - N/A   Clear
3:55 AM 55.9 °F 43.9 °F 64% 29.93 in 10.0 mi Calm Calm - N/A   Clear
4:15 AM 56.1 °F 44.8 °F 66% 29.93 in 10.0 mi Calm Calm - N/A   Clear
4:35 AM 55.8 °F 44.2 °F 65% 29.93 in 10.0 mi Calm Calm - N/A   Clear
4:55 AM 54.0 °F 43.7 °F 68% 29.93 in 10.0 mi Calm Calm - N/A   Clear
5:15 AM 55.4 °F 45.1 °F 68% 29.94 in 10.0 mi NNE 3.5 mph - N/A   Clear
5:35 AM 56.1 °F 46.0 °F 69% 29.93 in 10.0 mi Calm Calm - N/A   Clear
5:55 AM 53.8 °F 44.8 °F 72% 29.94 in 10.0 mi NW 4.6 mph - N/A   Clear
6:15 AM 54.5 °F 44.2 °F 68% 29.94 in 10.0 mi NW 4.6 mph - N/A   Clear
6:35 AM 56.5 °F 45.0 °F 65% 29.95 in 10.0 mi WNW 3.5 mph - N/A   Clear
6:55 AM 56.3 °F 43.9 °F 63% 29.96 in 10.0 mi Calm Calm - N/A   Clear
7:15 AM 56.5 °F 44.2 °F 64% 29.96 in 10.0 mi Calm Calm - N/A   Clear
7:35 AM 58.1 °F 44.2 °F 60% 29.96 in 10.0 mi West 3.5 mph - N/A   Clear
8:15 AM 60.1 °F 46.2 °F 60% 29.96 in 10.0 mi Calm Calm - N/A   Clear
8:55 AM 65.1 °F 47.5 °F 53% 29.96 in 10.0 mi SSW 5.8 mph - N/A   Clear
9:15 AM 67.6 °F 47.5 °F 48% 29.96 in 10.0 mi Calm Calm - N/A   Clear
9:35 AM 68.9 °F 46.4 °F 44% 29.96 in 10.0 mi Calm Calm - N/A   Clear
9:55 AM 70.7 °F 46.8 °F 42% 29.96 in 10.0 mi Calm Calm - N/A   Clear
10:15 AM 74.8 °F 43.2 °F 32% 29.96 in 10.0 mi Calm Calm - N/A   Clear
10:35 AM 77.9 °F 42.8 °F 29% 29.96 in 10.0 mi Calm Calm - N/A   Clear
10:55 AM 78.8 °F 44.6 °F 30% 29.96 in 10.0 mi Calm Calm - N/A   Clear
11:15 AM 79.9 °F 45.7 °F 30% 29.95 in 10.0 mi East 5.8 mph - N/A   Clear
11:55 AM 86.9 °F 35.4 °F 16% 29.93 in 10.0 mi SSE 5.8 mph - N/A   Clear
12:15 PM 85.6 °F 35.6 °F 17% 29.92 in 10.0 mi SE 5.8 mph - N/A   Clear
12:35 PM 87.3 °F 33.6 °F 15% 29.92 in 10.0 mi SE 3.5 mph - N/A   Clear
12:55 PM 87.8 °F 32.9 °F 14% 29.91 in 10.0 mi Calm Calm - N/A   Clear
1:15 PM 89.1 °F 31.6 °F 13% 29.90 in 10.0 mi East 6.9 mph - N/A   Clear
1:35 PM 89.8 °F 32.5 °F 13% 29.89 in 7.0 mi Calm Calm - N/A   Clear
1:55 PM 86.0 °F 32.0 °F 14% 29.89 in 10.0 mi Calm Calm - N/A   Clear
2:15 PM 87.6 °F 32.7 °F 14% 29.89 in 10.0 mi SE 6.9 mph - N/A   Scattered Clouds
2:35 PM 90.3 °F 34.2 °F 14% 29.88 in 7.0 mi SE 9.2 mph 17.3 mph N/A   Clear
2:55 PM 89.8 °F 34.0 °F 14% 29.88 in 10.0 mi ESE 5.8 mph - N/A   Clear
3:15 PM 91.0 °F 34.3 °F 13% 29.88 in 10.0 mi SSE 8.1 mph - N/A   Clear
3:35 PM 86.2 °F 34.2 °F 16% 29.88 in 7.0 mi ESE 6.9 mph - N/A   Clear
3:55 PM 86.5 °F 33.8 °F 15% 29.88 in 10.0 mi SSE 5.8 mph - N/A   Clear
4:15 PM 88.2 °F 33.3 °F 14% 29.88 in 10.0 mi SSE 3.5 mph - N/A   Clear
4:35 PM 88.3 °F 33.6 °F 14% 29.88 in 10.0 mi Calm Calm - N/A   Scattered Clouds
4:55 PM 86.2 °F 33.8 °F 15% 29.89 in 10.0 mi SSE 4.6 mph - N/A   Mostly Cloudy
5:15 PM 87.1 °F 33.3 °F 15% 29.89 in 10.0 mi Calm Calm - N/A   Mostly Cloudy
5:35 PM 86.9 °F 35.8 °F 16% 29.89 in 10.0 mi WNW 10.4 mph 18.4 mph N/A   Scattered Clouds
5:55 PM 86.7 °F 35.8 °F 16% 29.90 in 10.0 mi West 15.0 mph - N/A   Scattered Clouds
6:15 PM 82.0 °F 36.9 °F 20% 29.90 in 10.0 mi West 4.6 mph - N/A   Clear
6:35 PM 80.8 °F 36.0 °F 20% 29.91 in 7.0 mi Calm Calm - N/A   Clear
6:55 PM 79.3 °F 32.2 °F 18% 29.91 in 10.0 mi West 13.8 mph - N/A   Clear
7:15 PM 79.9 °F 33.3 °F 18% 29.92 in 7.0 mi WSW 9.2 mph 12.7 mph N/A   Clear
7:35 PM 80.6 °F 33.4 °F 18% 29.93 in 10.0 mi SW 12.7 mph 19.6 mph N/A   Clear
7:55 PM 79.0 °F 35.4 °F 21% 29.94 in 10.0 mi WSW 12.7 mph - N/A   Clear
8:15 PM 78.8 °F 35.8 °F 21% 29.95 in 10.0 mi WSW 10.4 mph 16.1 mph N/A   Clear
8:35 PM 73.9 °F 37.0 °F 26% 29.96 in 7.0 mi West 10.4 mph - N/A   Clear
8:55 PM 70.2 °F 37.8 °F 31% 29.97 in 10.0 mi West 6.9 mph - N/A   Clear
9:15 PM 72.5 °F 37.4 °F 28% 29.98 in 10.0 mi WSW 5.8 mph - N/A   Clear
9:35 PM 72.1 °F 37.8 °F 29% 29.99 in 10.0 mi West 8.1 mph - N/A   Clear
9:55 PM 70.7 °F 38.1 °F 30% 29.98 in 10.0 mi West 11.5 mph - N/A   Scattered Clouds
10:15 PM 72.5 °F 37.9 °F 28% 29.99 in 10.0 mi WSW 11.5 mph - N/A   Scattered Clouds
10:35 PM 72.0 °F 38.7 °F 30% 29.99 in 7.0 mi WSW 8.1 mph - N/A   Clear
10:55 PM 71.2 °F 39.2 °F 31% 29.99 in 10.0 mi WSW 10.4 mph - N/A   Clear
11:15 PM 72.1 °F 39.0 °F 30% 30.00 in 7.0 mi WSW 6.9 mph - N/A   Clear
11:35 PM 70.9 °F 38.7 °F 31% 30.00 in 10.0 mi WSW 6.9 mph - N/A   Clear
11:55 PM 70.2 °F 38.7 °F 32% 30.00 in 10.0 mi WSW 4.6 mph - N/A   Clear